This demonstration page uses our WeatherBlox Daily Observations layout. Learn more.

Left ArrowRight Arrow

Hourly Observations for March 8, 2020

Temp ( °F °C ) Dew Point ( °F °C ) Humidity (%) Winds ( mph kmh ) Pressure ( in mb ) Visibility ( mi km ) Precip ( " mm )
12:15 am 00:15 Clear 35 1.9 21 -6.2 55 55 S 6 9 30.46 1031 10 16 N/A
12:35 am 00:35 Clear 35 1.7 21 -6.1 57 57 S 6 9 30.46 1031 10 16 N/A
12:55 am 00:55 Clear 35 1.5 21 -6.3 57 57 S 5 7 30.46 1031 10 16 N/A
1:15 am 01:15 Clear 33 0.8 21 -6.2 60 60 S 6 9 30.46 1032 10 16 N/A
1:35 am 01:35 Clear 34 1.1 21 -6.2 59 59 SSE 3 6 30.47 1032 10 16 N/A
1:55 am 01:55 Clear 34 1 21 -6.2 59 59 S 3 6 30.47 1032 10 16 N/A
3:15 am 03:15 Clear 33 0.4 21 -6 63 63 S 6 9 30.47 1032 10 16 N/A
3:35 am 03:35 Clear 34 0.9 21 -6 60 60 SSE 6 9 30.47 1032 10 16 N/A
3:55 am 03:55 Clear 34 0.9 22 -5.8 61 61 SSE 6 9 30.46 1032 10 16 N/A
4:15 am 04:15 Clear 34 0.9 22 -5.7 62 62 SSE 5 7 30.46 1032 10 16 N/A
4:35 am 04:35 Clear 33 0.7 21 -5.9 62 62 SSE 3 6 30.45 1031 10 16 N/A
4:55 am 04:55 Clear 33 0.4 22 -5.8 64 64 SSE 5 7 30.45 1031 10 16 N/A
5:15 am 05:15 Clear 33 0.5 22 -5.8 63 63 SSE 5 7 30.45 1031 10 16 N/A
5:35 am 05:35 Clear 33 0.5 22 -5.5 64 64 SSE 5 7 30.45 1031 10 16 N/A
5:55 am 05:55 Clear 32 0.2 22 -5.5 66 66 SSE 3 6 30.45 1031 10 16 N/A
6:15 am 06:15 Clear 32 undefined 22 -5.3 68 68 SSE 5 7 30.45 1031 10 16 N/A
6:35 am 06:35 Clear 32 undefined 22 -5.3 68 68 SSE 5 7 30.46 1032 10 16 N/A
6:55 am 06:55 Clear 32 undefined 23 -5.1 69 69 SSE 3 6 30.46 1032 10 16 N/A
7:15 am 07:15 Clear 32 -0.2 23 -5 70 70 SSE 5 7 30.46 1032 10 16 N/A
7:35 am 07:35 Clear 31 -0.3 23 -5 71 71 SSE 3 6 30.47 1032 10 16 N/A
7:55 am 07:55 Clear 32 -0.2 23 -5 70 70 SSE 5 7 30.46 1032 10 16 N/A
8:15 am 08:15 Sunny 32 -0.1 23 -5 70 70 SSE 5 7 30.46 1032 10 16 N/A
8:35 am 08:35 Sunny 32 0.2 24 -4.6 70 70 SSE 7 11 30.46 1032 10 16 N/A
8:55 am 08:55 Sunny 33 0.7 24 -4.5 69 69 SSE 6 9 30.46 1032 10 16 N/A
9:15 am 09:15 Sunny 34 1.3 24 -4.2 67 67 SSE 6 9 30.46 1031 10 16 N/A
9:35 am 09:35 Sunny 37 2.6 25 -3.8 63 63 S 7 11 30.46 1031 10 16 N/A
9:55 am 09:55 Sunny 38 3.3 26 -3.5 61 61 S 6 9 30.46 1032 10 16 N/A
10:15 am 10:15 Sunny 40 4.5 26 -3.1 58 58 S 8 13 30.46 1031 10 16 N/A
10:35 am 10:35 Sunny 41 5.2 26 -3.2 55 55 S 7 11 30.45 1031 10 16 N/A
10:55 am 10:55 Sunny 44 6.8 27 -2.6 52 52 S 8 13 30.44 1031 10 16 N/A
11:15 am 11:15 Sunny 47 8.1 27 -2.6 47 47 SSW 9 15 30.43 1030 10 16 N/A
11:35 am 11:35 Sunny 49 9.6 25 -3.7 39 39 SW 13 20 30.42 1030 10 16 N/A
11:55 am 11:55 Sunny 51 10.3 26 -3.5 38 38 SSW 14 22 30.42 1030 10 16 N/A
12:15 pm 12:15 Sunny 53 11.5 26 -3.1 36 36 SW 10 17 30.41 1030 10 16 N/A
12:35 pm 12:35 Sunny 54 12.1 24 -4.4 32 32 SW 14 22 30.40 1030 10 16 N/A
12:55 pm 12:55 Sunny 55 12.5 24 -4.4 31 31 SSW 16 26 30.39 1029 10 16 N/A
1:15 pm 13:15 Sunny 56 13.2 25 -3.8 31 31 SSW 13 20 30.38 1029 10 16 N/A
1:35 pm 13:35 Sunny 57 13.8 26 -3.2 31 31 SSW 10 17 30.37 1028 10 16 N/A
1:55 pm 13:55 Sunny 58 14.3 27 -3 30 30 SSW 16 26 30.37 1028 10 16 N/A
2:15 pm 14:15 Sunny 58 14.6 27 -2.9 30 30 SSW 14 22 30.35 1028 10 16 N/A
2:35 pm 14:35 Sunny 59 15.1 26 -3.4 28 28 SSW 12 19 30.33 1027 10 16 N/A
2:55 pm 14:55 Sunny 60 15.4 24 -4.2 26 26 SW 10 17 30.32 1027 10 16 N/A
3:15 pm 15:15 Sunny 61 16.1 24 -4.4 24 24 SSW 17 28 30.31 1026 10 16 N/A
3:35 pm 15:35 Sunny 62 16.4 23 -5 23 23 SSW 15 24 30.30 1026 10 16 N/A
3:55 pm 15:55 Sunny 64 17.5 24 -4.7 22 22 SSW 15 24 30.29 1026 10 16 N/A
4:15 pm 16:15 Sunny 63 17.1 24 -4.6 22 22 SW 14 22 30.28 1025 10 16 N/A
4:35 pm 16:35 Sunny 64 18 23 -5 21 21 SSW 15 24 30.27 1025 10 16 N/A
4:55 pm 16:55 Sunny 64 17.9 22 -5.7 20 20 SSW 12 19 30.27 1025 10 16 N/A
5:15 pm 17:15 Sunny 65 18.1 21 -6.1 19 19 SSW 10 17 30.26 1025 10 16 N/A
5:35 pm 17:35 Sunny 64 17.6 22 -5.8 20 20 SSW 17 28 30.27 1025 10 16 N/A
5:55 pm 17:55 Sunny 64 17.5 21 -5.9 20 20 SSW 16 26 30.26 1025 10 16 N/A
6:15 pm 18:15 Sunny 64 17.5 21 -6.1 20 20 SSW 15 24 30.26 1025 10 16 N/A
6:35 pm 18:35 Sunny 63 17 25 -4 24 24 SSW 13 20 30.26 1025 10 16 N/A
6:55 pm 18:55 Sunny 62 16.5 24 -4.6 23 23 SSW 14 22 30.25 1024 10 16 N/A
7:15 pm 19:15 Sunny 60 15.7 25 -3.7 26 26 SSW 10 17 30.24 1024 10 16 N/A
7:35 pm 19:35 Sunny 59 14.8 26 -3.6 28 28 SSW 10 17 30.25 1024 10 16 N/A
7:55 pm 19:55 Clear 56 13.6 26 -3.6 30 30 S 9 15 30.24 1024 10 16 N/A
8:15 pm 20:15 Clear 55 12.7 26 -3.6 32 32 S 8 13 30.24 1024 10 16 N/A
8:35 pm 20:35 Clear 55 13 25 -3.9 31 31 SSW 9 15 30.25 1024 10 16 N/A
8:55 pm 20:55 Clear 53 11.4 26 -3.6 35 35 S 9 15 30.26 1025 10 16 N/A
9:15 pm 21:15 Clear 54 12.1 25 -3.9 33 33 S 10 17 30.25 1025 10 16 N/A
9:35 pm 21:35 Clear 52 11 25 -3.7 36 36 S 6 9 30.26 1025 10 16 N/A
9:55 pm 21:55 Clear 51 10.3 25 -3.9 37 37 S 6 9 30.27 1025 10 16 N/A
10:15 pm 22:15 Clear 50 10 24 -4.5 36 36 S 6 9 30.27 1025 10 16 N/A
10:35 pm 22:35 Clear 49 9.6 25 -3.7 39 39 S 8 13 30.27 1025 10 16 N/A
10:55 pm 22:55 Clear 50 10 25 -3.8 38 38 S 7 11 30.28 1025 10 16 N/A
11:15 pm 23:15 Clear 48 9.1 26 -3.6 41 41 S 7 11 30.28 1026 10 16 N/A
11:35 pm 23:35 Clear 48 9 26 -3.3 42 42 S 8 13 30.28 1026 10 16 N/A
11:55 pm 23:55 Clear 49 9.5 28 -2.4 44 44 S 7 11 30.29 1026 10 16 N/A

Powered by AerisWeather